When you browse on this site, cookies collect data to enhance your experience and personalize the content and advertising you see.
Visit our Privacy Policy to learn more. By continuing to use the site, you agree to this use of cookies and data.
  • En España
  • Lista de países
  • Para 7 días
  • Temperatura del agua
  • El tiempo en el mapa
  • Informadores
  • user-avatar
    Iniciar sesión

    Tiempo cada hora Buchach

    Hoy, 10 Abril, Viernes

    Tiempo Temperatura Precipitaciones Viento Presión Humedad
    00:00 +11°C° 0 mm 3 mps 731 mmHg 60%
    01:00 +10°C° 0 mm 4 mps 731 mmHg 61%
    02:00 +10°C° 0 mm 3 mps 731 mmHg 61%
    03:00 +8°C° 0.1 mm 4 mps 731 mmHg 65%
    04:00 +8°C° 0.1 mm 4 mps 731 mmHg 69%
    05:00 +7°C° 0.1 mm 5 mps 731 mmHg 73%
    06:00 +8°C° 0 mm 5 mps 731 mmHg 74%
    07:00 +8°C° 0 mm 5 mps 732 mmHg 74%
    08:00 +8°C° 0 mm 6 mps 732 mmHg 74%
    09:00 +9°C° 0 mm 6 mps 733 mmHg 66%
    10:00 +10°C° 0 mm 7 mps 733 mmHg 57%
    11:00 +10°C° 0 mm 7 mps 733 mmHg 48%
    12:00 +10°C° 0 mm 7 mps 733 mmHg 47%
    13:00 +11°C° 0 mm 7 mps 733 mmHg 45%
    14:00 +11°C° 0 mm 7 mps 734 mmHg 43%
    15:00 +10°C° 0 mm 6 mps 734 mmHg 42%
    16:00 +10°C° 0 mm 6 mps 733 mmHg 41%
    17:00 +9°C° 0 mm 6 mps 733 mmHg 41%
    18:00 +8°C° 0 mm 5 mps 734 mmHg 44%
    19:00 +7°C° 0 mm 4 mps 734 mmHg 47%
    20:00 +6°C° 0 mm 2 mps 734 mmHg 51%
    21:00 +6°C° 0 mm 2 mps 735 mmHg 52%
    22:00 +6°C° 0 mm 1 mps 735 mmHg 54%
    23:00 +6°C° 0 mm 1 mps 735 mmHg 55%

    Mañana, 11 Abril, Sábado

    Tiempo Temperatura Precipitaciones Viento Presión Humedad
    00:00 +6°C° 0 mm 1 mps 735 mmHg 56%
    01:00 +5°C° 0 mm 1 mps 735 mmHg 57%
    02:00 +5°C° 0 mm 1 mps 735 mmHg 57%
    03:00 +5°C° 0 mm 1 mps 735 mmHg 58%
    04:00 +5°C° 0 mm 1 mps 735 mmHg 58%
    05:00 +4°C° 0 mm 1 mps 735 mmHg 59%
    06:00 +5°C° 0 mm 1 mps 735 mmHg 55%
    07:00 +7°C° 0 mm 1 mps 735 mmHg 52%
    08:00 +7°C° 0 mm 2 mps 735 mmHg 49%
    09:00 +8°C° 0 mm 2 mps 735 mmHg 46%
    10:00 +9°C° 0 mm 3 mps 736 mmHg 43%
    11:00 +11°C° 0 mm 3 mps 736 mmHg 40%
    12:00 +11°C° 0 mm 3 mps 736 mmHg 41%
    13:00 +11°C° 0 mm 4 mps 736 mmHg 41%
    14:00 +12°C° 0 mm 4 mps 736 mmHg 42%
    15:00 +12°C° 0 mm 4 mps 736 mmHg 43%
    16:00 +11°C° 0 mm 4 mps 736 mmHg 44%
    17:00 +11°C° 0 mm 4 mps 736 mmHg 45%
    18:00 +10°C° 0 mm 3 mps 736 mmHg 49%
    19:00 +8°C° 0 mm 2 mps 736 mmHg 52%
    20:00 +7°C° 0 mm 2 mps 737 mmHg 56%
    21:00 +6°C° 0 mm 2 mps 737 mmHg 56%
    22:00 +6°C° 0 mm 2 mps 737 mmHg 57%
    23:00 +5°C° 0 mm 2 mps 738 mmHg 57%

    Pasado mañana, 12 Abril, Domingo

    Tiempo Temperatura Precipitaciones Viento Presión Humedad
    00:00 +4°C° 0 mm 2 mps 738 mmHg 57%
    01:00 +4°C° 0 mm 2 mps 738 mmHg 57%
    02:00 +3°C° 0 mm 2 mps 737 mmHg 56%
    03:00 +3°C° 0 mm 2 mps 737 mmHg 57%
    04:00 +2°C° 0 mm 3 mps 737 mmHg 58%
    05:00 +1°C° 0 mm 3 mps 737 mmHg 59%
    06:00 +2°C° 0 mm 3 mps 737 mmHg 57%
    07:00 +3°C° 0 mm 4 mps 737 mmHg 54%
    08:00 +3°C° 0 mm 5 mps 736 mmHg 52%
    09:00 +6°C° 0 mm 5 mps 736 mmHg 51%
    10:00 +8°C° 0 mm 5 mps 736 mmHg 49%
    11:00 +9°C° 0 mm 5 mps 736 mmHg 48%
    12:00 +11°C° 0 mm 4 mps 735 mmHg 46%
    13:00 +12°C° 0 mm 4 mps 735 mmHg 45%
    14:00 +13°C° 0 mm 3 mps 734 mmHg 43%
    15:00 +14°C° 0 mm 3 mps 734 mmHg 43%
    16:00 +15°C° 0 mm 2 mps 733 mmHg 44%
    17:00 +15°C° 0 mm 2 mps 733 mmHg 44%
    18:00 +14°C° 0 mm 2 mps 733 mmHg 49%
    19:00 +12°C° 0 mm 2 mps 732 mmHg 54%
    20:00 +10°C° 0 mm 2 mps 732 mmHg 60%
    21:00 +9°C° 0 mm 2 mps 732 mmHg 62%
    22:00 +9°C° 0 mm 2 mps 732 mmHg 64%
    23:00 +8°C° 0 mm 2 mps 731 mmHg 66%

    13 Abril, Lunes

    Tiempo Temperatura Precipitaciones Viento Presión Humedad
    00:00 +8°C° 0 mm 2 mps 731 mmHg 68%
    01:00 +8°C° 0 mm 1 mps 731 mmHg 71%
    02:00 +8°C° 0 mm 1 mps 731 mmHg 73%
    03:00 +7°C° 0 mm 1 mps 730 mmHg 74%
    04:00 +7°C° 0 mm 1 mps 730 mmHg 75%
    05:00 +7°C° 0 mm 1 mps 730 mmHg 76%
    06:00 +7°C° 0 mm 2 mps 730 mmHg 71%
    07:00 +9°C° 0 mm 2 mps 729 mmHg 66%
    08:00 +10°C° 0 mm 2 mps 729 mmHg 61%
    09:00 +12°C° 0 mm 3 mps 729 mmHg 55%
    10:00 +13°C° 0 mm 3 mps 728 mmHg 49%
    11:00 +15°C° 0 mm 4 mps 728 mmHg 43%
    12:00 +17°C° 0 mm 3 mps 728 mmHg 41%
    13:00 +17°C° 0 mm 3 mps 727 mmHg 40%
    14:00 +18°C° 0 mm 3 mps 727 mmHg 38%
    15:00 +17°C° 0 mm 3 mps 726 mmHg 41%
    16:00 +17°C° 0 mm 3 mps 726 mmHg 45%
    17:00 +17°C° 0 mm 3 mps 725 mmHg 48%
    18:00 +16°C° 0 mm 3 mps 724 mmHg 52%
    19:00 +13°C° 0 mm 3 mps 724 mmHg 56%
    20:00 +12°C° 0 mm 4 mps 723 mmHg 60%
    21:00 +12°C° 0 mm 4 mps 723 mmHg 62%
    22:00 +11°C° 0 mm 4 mps 722 mmHg 64%
    23:00 +10°C° 0 mm 5 mps 722 mmHg 66%

    14 Abril, Martes

    Tiempo Temperatura Precipitaciones Viento Presión Humedad
    00:00 +11°C° 0 mm 4 mps 721 mmHg 68%
    01:00 +11°C° 0 mm 4 mps 721 mmHg 70%
    02:00 +10°C° 0 mm 4 mps 720 mmHg 72%
    03:00 +9°C° 0.1 mm 5 mps 721 mmHg 77%
    04:00 +8°C° 0.1 mm 5 mps 721 mmHg 82%
    05:00 +8°C° 0.1 mm 6 mps 721 mmHg 88%
    06:00 +5°C° 0.8 mm 6 mps 722 mmHg 88%
    07:00 +4°C° 0.8 mm 7 mps 722 mmHg 89%
    08:00 +1°C° 0.8 mm 8 mps 723 mmHg 90%
    09:00 +2°C° 0.9 mm 7 mps 723 mmHg 86%
    10:00 0°C° 0.9 mm 7 mps 724 mmHg 82%
    11:00 -1°C° 0.9 mm 6 mps 725 mmHg 78%
    12:00 +1°C° 0.2 mm 6 mps 726 mmHg 70%
    13:00 +1°C° 0.2 mm 6 mps 726 mmHg 63%
    14:00 +2°C° 0.2 mm 6 mps 727 mmHg 55%
    15:00 +2°C° 0.1 mm 6 mps 727 mmHg 53%
    16:00 +3°C° 0.1 mm 6 mps 727 mmHg 51%
    17:00 +3°C° 0.1 mm 6 mps 727 mmHg 48%
    18:00 +2°C° 0 mm 5 mps 727 mmHg 54%
    19:00 +1°C° 0 mm 5 mps 728 mmHg 60%
    20:00 0°C° 0 mm 4 mps 728 mmHg 65%
    21:00 -1°C° 0 mm 4 mps 729 mmHg 67%
    22:00 -1°C° 0 mm 4 mps 729 mmHg 68%
    23:00 -1°C° 0 mm 4 mps 729 mmHg 69%

    15 Abril, Miércoles

    Tiempo Temperatura Precipitaciones Viento Presión Humedad
    00:00 -2°C° 0 mm 4 mps 730 mmHg 70%
    01:00 -2°C° 0 mm 5 mps 730 mmHg 71%
    02:00 -2°C° 0 mm 5 mps 730 mmHg 71%
    03:00 -4°C° 0 mm 5 mps 730 mmHg 72%
    04:00 -4°C° 0 mm 5 mps 731 mmHg 73%
    05:00 -4°C° 0 mm 5 mps 731 mmHg 74%
    06:00 -4°C° 0 mm 6 mps 731 mmHg 68%
    07:00 -3°C° 0 mm 7 mps 731 mmHg 63%
    08:00 -2°C° 0 mm 7 mps 731 mmHg 58%
    09:00 -1°C° 0 mm 7 mps 731 mmHg 55%
    10:00 0°C° 0 mm 7 mps 732 mmHg 51%
    11:00 +2°C° 0 mm 7 mps 732 mmHg 48%
    12:00 +3°C° 0 mm 7 mps 732 mmHg 47%
    13:00 +4°C° 0 mm 7 mps 732 mmHg 45%
    14:00 +4°C° 0 mm 6 mps 732 mmHg 44%
    15:00 +4°C° 0 mm 6 mps 731 mmHg 44%
    16:00 +5°C° 0 mm 6 mps 731 mmHg 44%
    17:00 +5°C° 0 mm 6 mps 731 mmHg 44%
    18:00 +5°C° 0 mm 5 mps 731 mmHg 48%
    19:00 +3°C° 0 mm 4 mps 731 mmHg 52%
    20:00 +2°C° 0 mm 3 mps 731 mmHg 56%
    21:00 +2°C° 0 mm 3 mps 731 mmHg 58%
    22:00 +1°C° 0 mm 3 mps 731 mmHg 61%
    23:00 +1°C° 0 mm 3 mps 731 mmHg 63%
    Mostrar más